Regional Weather Roundup
Issued by NWS Grand Forks, ND

Home | Current Version | Previous Version | Text Only | Print | Product List | Glossary On
Versions: 1 2 3 4 5 6 7 8 9 10 11 12 13 14 15 16 17 18 19 20 21 22 23 24 25 26 27 28 29 30 31 32 33 34 35 36 37 38 39 40 41 42 43 44 45 46 47 48 49 50
000
ASUS43 KFGF 250631
RWRFGF
PRAIRIE TO PINES  WEATHER ROUNDUP
NATIONAL WEATHER SERVICE EASTERN NORTH DAKOTA/GRAND FORKS ND
100 AM CDT FRI APR 25 2014

 **SATELLITE DATA USED TO AUGMENT SKY COVER AT AUTOMATED STATIONS**
 *****  WEATHER ACROSS EASTERN NORTH DAKOTA  *****

CITY           SKY/WX    TMP DP  RH WIND       PRES   REMARKS
GRAND FORKS    FOG       39  38  96 NE5       29.71S VSB 1/2
6HR MIN TEMP:  39; 6HR MAX TEMP:  43;

GRAND FRKS AFB FOG       39  39 100 NE5       29.73R VSB 3/4
GRAND FRKS NWS   N/A     37 N/A N/A VRB3        N/A
DEVILS LAKE    CLOUDY    37  34  87 SW5       29.72S VSB 1/2
6HR MIN TEMP:  36; 6HR MAX TEMP:  50;

FARGO          FOG       38  37  97 W6        29.72R VSB 1/4
WAHPETON ARPT  FAIR      36  32  87 NW6       29.72F
$$

 ***** WEATHER ACROSS CENTRAL AND WESTERN NORTH DAKOTA  *****

CITY           SKY/WX    TMP DP  RH WIND       PRES   REMARKS
BISMARCK       CLEAR     34  29  82 CALM      29.75S
6HR MIN TEMP:  34; 6HR MAX TEMP:  61;

MINOT          FAIR      38  31  76 SW7       29.69F
6HR MIN TEMP:  38; 6HR MAX TEMP:  57;

JAMESTOWN      FAIR      37  34  89 W3        29.72S
6HR MIN TEMP:  37; 6HR MAX TEMP:  56;

MINOT AFB      FAIR      36  33  90 NW6       29.69S
GARRISON         N/A     39  32  76 CALM      29.71F
WILLISTON      CLOUDY    39  30  70 CALM      29.71S
6HR MIN TEMP:  35; 6HR MAX TEMP:  59;

DICKINSON      MOCLDY    42  26  53 SW8       29.74S
6HR MIN TEMP:  39; 6HR MAX TEMP:  59;

HETTINGER      CLOUDY    48  28  46 NW9       29.78S
6HR MIN TEMP:  43; 6HR MAX TEMP:  60;

$$

 *****  OTHER AIRPORT OBSERVATIONS IN OUR AREA  *****

CITY           SKY/WX    TMP DP  RH WIND       PRES   REMARKS
WALHALLA       FOG       36  36 100 E3        29.74R VSB 3/4
GRAFTON AIRPOR FOG       36  36 100 NE3       29.72S VSB 3/4
VALLEY CITY AR FAIR      36  36 100 NW9       29.73R
CANDO          FOG       37  37 100 S3        29.72S VSB 1/2
CAVALIER APRT  CLOUDY    36  36 100 NE5       29.74R FOG
GWINNER        CLEAR     34  34 100 W8        29.74S
SHEYENNE NWR     N/A     37  37  99 NW5       29.95
ROLLA          FOG       37  37 100 W10       29.71S VSB 1/4
 ***** THE ABOVE OBSERVATIONS ARE NON NWS ARE NOT QUALITY
       CONTROLLED AND MAY MIS-REPORT RAIN FOR SNOW...
$$

  *****  WEATHER ACROSS NORTHERN MINNESOTA  *****

CITY           SKY/WX    TMP DP  RH WIND       PRES   REMARKS
FLAG ISLAND    LGT SNOW  34  32  93 NE6       29.72F
WARROAD        LGT SNOW  32  28  86 NE6       29.73S
ROSEAU         LGT SNOW  34  28  80 NE3       29.72S
HALLOCK        DRIZZLE   36  34  93 E5        29.73S
THF RVR FALLS  CLOUDY    34  30  86 NE3       29.71S
6HR MIN TEMP:  34; 6HR MAX TEMP:  36;

BAUDETTE       LGT SNOW  33  32  96 NE7       29.70S FOG
6HR MIN TEMP:  32; 6HR MAX TEMP:  33; 6HR PCP:  0.21;

WASKISH        MIX PCPN  34  32  93 CALM      29.69R
CROOKSTON      CLOUDY    36  36 100 NE3       29.73R FOG
$$
  *****  WEATHER ACROSS CENTRAL AND WEST MINNESOTA  *****

CITY           SKY/WX    TMP DP  RH WIND       PRES   REMARKS
FOSSTON        CLOUDY    30  30 100 CALM      29.70R
BEMIDJI        CLOUDY    32  32 100 CALM      29.66F
PARK RAPIDS    FOG       32  32 100 SW6       29.68R VSB 3/4
6HR MIN TEMP:  32; 6HR MAX TEMP:  34;

ELBOW LAKE     FAIR      35  34  98 W5        29.71S
6HR MIN TEMP:  34; 6HR MAX TEMP:  47;

WADENA         MOCLDY    34  34 100 CALM      29.68F FOG
DETROIT LAKES  FOG       37  37 100 CALM      29.70S VSB 1/4
MOORHEAD       CLOUDY    39  39 100 NW5       29.72S FOG
FERGUS FALLS   FAIR      36  34  93 W3        29.69S
MORRIS MN      FAIR      37  36  93 W6        29.70R
STAPLES        FOG       34  34 100 CALM      29.70R VSB 1/4
$$
  *****  WEATHER ELSEWHERE ACROSS MINNESOTA  *****

CITY           SKY/WX    TMP DP  RH WIND       PRES   REMARKS
DULUTH         FRZ DRZL  33  30  88 CALM      29.65S
6HR MIN TEMP:  32; 6HR MAX TEMP:  33; 6HR PCP:  0.10;

INTRNTL FALLS  LGT SNOW  33  31  92 NE6       29.68F VSB 1
6HR MIN TEMP:  33; 6HR MAX TEMP:  33; 6HR PCP:  0.31;

ELY            LGT SNOW  32  30  93 E7        29.65F
CLOQUET          N/A     32  30  93 CALM      29.66S
WHEATON        FAIR      43  39  87 W5        29.75R
BRAINERD       HAZE      39  34  82 W6        29.71R VSB 1/2
6HR MIN TEMP:  39; 6HR MAX TEMP:  40; 6HR PCP: TRACE;

HIBBING        LGT SNOW  33  31  92 CALM      29.65F FOG
6HR MIN TEMP:  33; 6HR MAX TEMP:  34; 6HR PCP:  0.15;

ALEXANDRIA     FAIR      35  33  92 SW5       29.71S
6HR MIN TEMP:  35; 6HR MAX TEMP:  46;

SAINT CLOUD    FAIR      38  35  89 CALM      29.70F FOG
6HR MIN TEMP:  36; 6HR MAX TEMP:  44;

MINNEAPOLIS    FAIR      38  37  97 CALM      29.73S
6HR MIN TEMP:  38; 6HR MAX TEMP:  45;

$$

  *****  WEATHER ACROSS SOUTH DAKOTA  *****

CITY           SKY/WX    TMP DP  RH WIND       PRES   REMARKS
SIOUX FALLS    FAIR      40  32  73 CALM      29.77S
6HR MIN TEMP:  40; 6HR MAX TEMP:  64;

BROOKINGS      NOT AVBL
WATERTOWN      FAIR      39  38  96 S5        29.75R
6HR MIN TEMP:  39; 6HR MAX TEMP:  56;

HURON          CLOUDY    41  25  53 W6        29.76R
6HR MIN TEMP:  40; 6HR MAX TEMP:  65;

SISSETON         N/A     40  37  89 NW5       29.71S
ABERDEEN       MOCLDY    39  32  76 NW3       29.76S
6HR MIN TEMP:  39; 6HR MAX TEMP:  62;

MITCHELL       MOCLDY    47  24  40 W6        29.77F
PIERRE         CLOUDY    49  25  39 W6        29.76R
6HR MIN TEMP:  46; 6HR MAX TEMP:  63;

MOBRIDGE       CLOUDY    47  29  49 S7        29.74S
RAPID CITY     CLOUDY    41  28  60 NW5       29.81S
6HR MIN TEMP:  41; 6HR MAX TEMP:  58;

$$

  *****  SOME WEATHER IN NEARBY STATES *****

CITY           SKY/WX    TMP DP  RH WIND       PRES   REMARKS
GLASGOW MT     PTCLDY    48  33  56 SW6       29.72R
6HR MIN TEMP:  47; 6HR MAX TEMP:  59;

GREAT FALLS MT PTCLDY    43  31  62 SW16      29.75F
6HR MIN TEMP:  43; 6HR MAX TEMP:  55;

CHEYENNE WY    CLOUDY    50  20  30 W13       29.95R
6HR MIN TEMP:  49; 6HR MAX TEMP:  58;

SCOTTSBLUFF NE CLOUDY    61  25  25 W21G29    29.82S
6HR MIN TEMP:  54; 6HR MAX TEMP:  67;

OMAHA NE       FAIR      49  42  77 SE6       29.82S
6HR MIN TEMP:  49; 6HR MAX TEMP:  64;

DES MOINES IA  FAIR      47  42  83 NW3       29.81R
6HR MIN TEMP:  47; 6HR MAX TEMP:  55;

DAVENPORT IA   MOCLDY    50  46  86 NW13      29.71R FOG
6HR MIN TEMP:  50; 6HR MAX TEMP:  55; 6HR PCP:  0.10;

CHICAGO IL     LGT RAIN  51  41  68 N3        29.64R
6HR MIN TEMP:  51; 6HR MAX TEMP:  62; 6HR PCP:  0.03;

EAU CLAIRE WI  CLOUDY    42  39  89 W8        29.71S
6HR MIN TEMP:  42; 6HR MAX TEMP:  44;

LA CROSSE WI   CLOUDY    45  40  82 NW7       29.74R
6HR MIN TEMP:  45; 6HR MAX TEMP:  47;

$$

  *****  SOME NATIONAL WEATHER *****

CITY           SKY/WX    TMP DP  RH WIND       PRES   REMARKS
LA GUARDIA NY  FAIR      48  21  34 NW12      30.01S
6HR MIN TEMP:  48; 6HR MAX TEMP:  57;

RALEIGH NC     FAIR      55  41  59 SE3       29.99F
6HR MIN TEMP:  55; 6HR MAX TEMP:  65;

ATLANTA GA     CLOUDY    66  52  60 SW7       29.91S
6HR MIN TEMP:  66; 6HR MAX TEMP:  75;

NEW ORLEANS LA MOCLDY    69  67  93 W6        29.94S
6HR MIN TEMP:  69; 6HR MAX TEMP:  76;

OKLAHOMA CITY  FAIR      51  38  60 SE5       29.96S
6HR MIN TEMP:  51; 6HR MAX TEMP:  72;

ALBUQUERQUE NM CLEAR     56   8  14 E3        30.02S
6HR MIN TEMP:  56; 6HR MAX TEMP:  70;

SALT LAKE CITY MOCLDY    51  33  50 E6        29.86S
6HR MIN TEMP:  50; 6HR MAX TEMP:  66;

LOS ANGELES CA PTCLDY    61  54  77 CALM      29.93F
6HR MIN TEMP:  61; 6HR MAX TEMP:  68;




USA.gov is the U.S. government's official web portal to all federal, state and local government web resources and services.